Location: Auckland
(36.8670°S, 174.7670°E)
Time: 04:27:08
(UTC+12:00)

Courier 1B Rocket - Pass Details

Date: 28 July 2019
Orbit: 920 x 1202 km, 28.3° (Epoch: 20 August)

Event Time Altitude Azimuth Distance (km) Brightness Sun altitude
Rises 00:46:43 0° 321° (NW) 3,998 - -71.8°
Reaches altitude 10° 00:50:07 10° 335° (NNW) 3,076 - -71.7°
Maximum altitude 00:55:54 23° 24° (NNE) 2,278 - -71.3°
Drops below altitude 10° 01:01:47 10° 73° (ENE) 3,142 - -70.8°
Sets 01:05:18 0° 86° (E) 4,104 - -70.5°
